Weather History for New Bedford, MA

Change the Weather History Date:

Thursday, January 2, 2014

  Actual Average Record
Temperature  
Mean Temperature 26 °F -  
Max Temperature 30 °F 39 °F 56 °F (1979)
Min Temperature 21 °F 26 °F 3 °F (1999)
Degree Days  
Heating Degree Days 40    
Moisture  
Dew Point 24 °F    
Average Humidity 87    
Maximum Humidity 93    
Minimum Humidity 60    
Precipitation  
Precipitation 0.06 in - - ()
Sea Level Pressure  
Sea Level Pressure 30.00 in    
Wind  
Wind Speed 10 mph (NE)    
Max Wind Speed 23 mph    
Max Gust Speed 32 mph    
Visibility 2 miles    
Events Fog , Snow    
Averages and records for this station are not official NWS values.
T = Trace of Precipitation, MM = Missing Value Source: NWS Daily Summary

Daily Weather History Graph

Daily Weather History Graph

Search for Another Location

Airport:

Trip Planner

Search our weather history database for the weather conditions in past years. The results will help you decide how hot, cold, wet, or windy it might be!

Date:

Astronomy

Jan. 02, 2014 Rise Set
Actual Time 7:10 AM EST 4:25 PM EST
Civil Twilight 6:39 AM EST 4:56 PM EST
Nautical Twilight 6:04 AM EST 5:31 PM EST
Astronomical Twilight 5:31 AM EST 6:05 PM EST
Moon 7:48 AM EST (1/2) 6:20 PM EST (1/2)
Length of Visible Light 10h 16m
Length of Day
9h 14m
New Moon, 2% of the Moon is Illuminated
Jan 2
New Moon
Jan 7
First Quarter
Jan 15
Full
Jan 24
Last Quarter
Jan 30
New

Hourly Weather History & Observations

Time (EST) Temp. Windchill Dew Point Humidity Pressure Visibility Wind Dir Wind Speed Gust Speed Precip Events Conditions
12:53 AM 24.1 °F 16.0 °F 12.0 °F 60% 30.33 in 10.0 mi NNE 6.9 mph - N/A   Overcast
1:53 AM 23.0 °F 15.8 °F 17.1 °F 78% 30.32 in 4.0 mi NE 5.8 mph - 0.00 in Snow Light Snow
2:16 AM 23.0 °F 17.0 °F 18.0 °F 81% 30.32 in 2.5 mi NNE 4.6 mph - 0.00 in Snow Light Snow
2:33 AM 23.0 °F 18.4 °F 18.0 °F 81% 30.33 in 1.8 mi NE 3.5 mph - 0.00 in Snow Light Snow
2:53 AM 23.0 °F - 19.0 °F 85% 30.32 in 2.0 mi Calm Calm - 0.00 in Snow Light Snow
3:02 AM 23.0 °F 18.4 °F 19.0 °F 85% 30.31 in 4.0 mi NNE 3.5 mph - 0.00 in Snow Light Snow
3:50 AM 21.2 °F 14.9 °F 17.6 °F 86% 30.29 in 10.0 mi NNE 4.6 mph - 0.00 in   Overcast
3:53 AM 21.9 °F 15.7 °F 18.0 °F 85% 30.30 in 10.0 mi NNE 4.6 mph - 0.00 in   Overcast
4:28 AM 21.9 °F 13.4 °F 19.0 °F 89% 30.28 in 3.0 mi NNE 6.9 mph - N/A   Overcast
4:51 AM 21.2 °F 12.6 °F 19.4 °F 93% 30.25 in 5.0 mi NNE 6.9 mph - N/A   Overcast
4:53 AM 21.9 °F 14.5 °F 19.9 °F 92% 30.26 in 5.0 mi Variable 5.8 mph - N/A   Overcast
5:10 AM 23.0 °F 15.8 °F 21.0 °F 92% 30.26 in 9.0 mi NNE 5.8 mph - N/A   Overcast
5:53 AM 24.1 °F 18.2 °F 21.0 °F 88% 30.25 in 5.0 mi NNE 4.6 mph - 0.00 in Snow Light Snow
6:18 AM 24.1 °F 16.0 °F 21.9 °F 91% 30.24 in 4.0 mi NNE 6.9 mph - 0.01 in Snow Light Snow
6:53 AM 24.1 °F 17.0 °F 21.9 °F 91% 30.23 in 5.0 mi North 5.8 mph - 0.01 in Snow Light Snow
7:53 AM 26.1 °F 15.0 °F 23.0 °F 88% 30.21 in 1.5 mi NE 12.7 mph - 0.01 in Snow Light Snow
8:13 AM 26.1 °F 16.2 °F 23.0 °F 88% 30.20 in 1.5 mi NE 10.4 mph - 0.00 in Snow Light Snow
8:53 AM 27.0 °F 16.7 °F 24.1 °F 89% 30.21 in 1.5 mi NNE 11.5 mph - 0.00 in Snow Light Snow
9:05 AM 27.0 °F 17.3 °F 24.1 °F 89% 30.20 in 1.5 mi NE 10.4 mph - 0.00 in Snow Light Snow
9:53 AM 28.0 °F 18.6 °F 25.0 °F 88% 30.17 in 1.0 mi NNE 10.4 mph - 0.00 in Snow Light Snow
10:32 AM 28.0 °F 18.1 °F 26.1 °F 92% 30.14 in 1.0 mi NNE 11.5 mph - 0.00 in Snow Light Snow
10:53 AM 28.9 °F 19.8 °F 26.1 °F 89% 30.12 in 1.0 mi NE 10.4 mph - 0.00 in Snow Light Snow
11:18 AM 28.9 °F 19.2 °F 26.1 °F 89% 30.09 in 0.5 mi NNE 11.5 mph - 0.00 in Fog , Snow Light Snow
11:35 AM 28.9 °F 19.2 °F 26.1 °F 89% 30.08 in 1.5 mi NNE 11.5 mph 19.6 mph 0.00 in Snow Light Snow
11:43 AM 28.9 °F 19.2 °F 26.1 °F 89% 30.07 in 1.8 mi NNE 11.5 mph - 0.00 in Snow Light Snow
11:53 AM 28.9 °F 19.8 °F 26.1 °F 89% 30.07 in 1.2 mi NE 10.4 mph - 0.00 in Snow Light Snow
12:04 PM 28.9 °F 19.2 °F 26.1 °F 89% 30.05 in 0.8 mi NE 11.5 mph - 0.00 in Snow Light Snow
12:11 PM 28.9 °F 19.2 °F 27.0 °F 92% 30.05 in 1.0 mi NE 11.5 mph - 0.00 in Snow Light Snow
12:16 PM 30.0 °F 20.0 °F 27.0 °F 88% 30.04 in 0.8 mi NNE 12.7 mph - 0.00 in Snow Light Snow
12:24 PM 30.0 °F 19.5 °F 27.0 °F 88% 30.03 in 1.2 mi NE 13.8 mph 24.2 mph 0.00 in Snow Light Snow
12:32 PM 30.0 °F 19.1 °F 27.0 °F 88% 30.02 in 2.0 mi NE 15.0 mph 20.7 mph 0.00 in Snow Light Snow
12:42 PM 30.0 °F 20.5 °F 27.0 °F 88% 30.01 in 5.0 mi NE 11.5 mph - 0.00 in   Overcast
12:53 PM 30.0 °F 20.5 °F 27.0 °F 88% 30.01 in 4.0 mi NE 11.5 mph - 0.00 in   Overcast
12:56 PM 30.0 °F 19.5 °F 27.0 °F 88% 30.01 in 2.5 mi NE 13.8 mph - 0.00 in Snow Light Snow
1:02 PM 30.0 °F 20.5 °F 27.0 °F 88% 30.00 in 1.5 mi NE 11.5 mph - 0.00 in Snow Light Snow
1:07 PM 30.0 °F 20.5 °F 27.0 °F 88% 30.00 in 3.0 mi NE 11.5 mph - 0.00 in Snow Light Snow
1:25 PM 30.0 °F 21.7 °F 28.0 °F 92% 29.98 in 2.0 mi NE 9.2 mph - 0.00 in Snow Light Snow
1:29 PM 30.0 °F 22.4 °F 28.0 °F 92% 29.98 in 1.0 mi NNE 8.1 mph - 0.00 in Snow Light Snow
1:31 PM 30.0 °F 21.7 °F 28.0 °F 92% 29.98 in 0.8 mi NE 9.2 mph - 0.00 in Snow Light Snow
1:45 PM 30.9 °F 19.8 °F 28.0 °F 89% 29.97 in 1.0 mi NE 16.1 mph - 0.00 in Snow Light Snow
1:53 PM 30.9 °F 21.7 °F 28.0 °F 89% 29.98 in 0.8 mi NE 11.5 mph 21.9 mph 0.00 in Snow Light Snow
1:57 PM 30.9 °F 21.2 °F 28.0 °F 89% 29.98 in 1.0 mi NE 12.7 mph 20.7 mph 0.00 in Snow Light Snow
2:34 PM 30.0 °F 18.7 °F 27.0 °F 88% 29.96 in 0.8 mi NE 16.1 mph 28.8 mph 0.01 in Snow Light Snow
2:53 PM 30.0 °F 17.9 °F 27.0 °F 88% 29.95 in 0.8 mi NE 18.4 mph 25.3 mph 0.01 in Snow Light Snow
3:15 PM 30.0 °F 18.3 °F 27.0 °F 88% 29.94 in 1.2 mi NE 17.3 mph 26.5 mph 0.00 in Snow Light Snow
3:40 PM 30.0 °F 18.3 °F 26.1 °F 85% 29.92 in 1.8 mi NE 17.3 mph 26.5 mph 0.00 in Snow Light Snow
3:53 PM 28.9 °F 16.5 °F 26.1 °F 89% 29.91 in 1.5 mi NE 18.4 mph 26.5 mph 0.00 in Snow Light Snow
4:17 PM 28.9 °F 16.5 °F 26.1 °F 89% 29.91 in 2.0 mi NE 18.4 mph 28.8 mph 0.00 in Snow Light Snow
4:46 PM 28.9 °F 18.2 °F 25.0 °F 85% 29.90 in 3.0 mi NE 13.8 mph 28.8 mph 0.00 in Snow Light Snow
4:53 PM 28.9 °F 15.4 °F 25.0 °F 85% 29.90 in 4.0 mi NE 21.9 mph 28.8 mph 0.00 in Snow Light Snow
5:30 PM 28.9 °F 16.9 °F 24.1 °F 82% 29.89 in 5.0 mi NE 17.3 mph 26.5 mph 0.00 in   Haze
5:49 PM 28.4 °F 16.6 °F 24.8 °F 86% 29.88 in 4.0 mi NNE 16.1 mph 24.2 mph 0.00 in Snow Light Snow
5:53 PM 28.0 °F 17.0 °F 24.1 °F 85% 29.88 in 4.0 mi NNE 13.8 mph 26.5 mph 0.00 in Snow Light Snow
6:19 PM 28.0 °F 15.3 °F 24.1 °F 85% 29.87 in 6.0 mi NE 18.4 mph 29.9 mph 0.00 in   Overcast
6:53 PM 28.0 °F 15.3 °F 24.1 °F 85% 29.86 in 7.0 mi NE 18.4 mph 26.5 mph 0.00 in Snow Light Snow
7:25 PM 28.0 °F 14.3 °F 24.1 °F 85% 29.84 in 2.0 mi NE 21.9 mph 29.9 mph 0.00 in Snow Light Snow
7:32 PM 28.0 °F 15.7 °F 24.1 °F 85% 29.84 in 1.5 mi NE 17.3 mph 29.9 mph 0.00 in Snow Light Snow
7:44 PM 28.0 °F 15.3 °F 24.1 °F 85% 29.83 in 2.0 mi NE 18.4 mph 27.6 mph 0.00 in Snow Light Snow
7:53 PM 28.0 °F 14.6 °F 23.0 °F 81% 29.83 in 2.5 mi NE 20.7 mph 27.6 mph 0.00 in Snow Light Snow
8:00 PM 28.0 °F 13.9 °F 24.1 °F 85% 29.83 in 3.0 mi NE 23.0 mph 27.6 mph 0.00 in Snow Light Snow
8:09 PM 28.0 °F 14.9 °F 24.1 °F 85% 29.83 in 2.0 mi NE 19.6 mph 28.8 mph 0.00 in Snow Light Snow
8:17 PM 28.0 °F 16.5 °F 24.1 °F 85% 29.82 in 1.2 mi NE 15.0 mph 25.3 mph 0.00 in Snow Light Snow
8:24 PM 27.0 °F 13.5 °F 24.1 °F 89% 29.81 in 0.8 mi NE 19.6 mph 25.3 mph 0.00 in Snow Light Snow
8:43 PM 27.0 °F 14.3 °F 25.0 °F 92% 29.80 in 0.8 mi NE 17.3 mph 23.0 mph 0.00 in Snow Light Snow
8:53 PM 28.0 °F 15.3 °F 25.0 °F 88% 29.80 in 1.0 mi NE 18.4 mph 24.2 mph 0.00 in Snow Light Snow
9:08 PM 28.0 °F 14.3 °F 25.0 °F 88% 29.78 in 1.0 mi NE 21.9 mph 26.5 mph 0.00 in Snow Light Snow
9:25 PM 27.0 °F 14.3 °F 24.1 °F 89% 29.75 in 0.8 mi NE 17.3 mph 27.6 mph 0.00 in Snow Light Snow
9:42 PM 28.0 °F 14.9 °F 25.0 °F 88% 29.74 in 1.0 mi NE 19.6 mph 26.5 mph 0.00 in Snow Light Snow
9:53 PM 28.0 °F 15.3 °F 24.1 °F 85% 29.73 in 1.0 mi NE 18.4 mph 29.9 mph 0.00 in Snow Light Snow
9:58 PM 28.0 °F 15.7 °F 25.0 °F 88% 29.72 in 0.8 mi NE 17.3 mph 25.3 mph 0.00 in Snow Light Snow
10:22 PM 28.0 °F 14.3 °F 24.1 °F 85% 29.71 in 1.0 mi NE 21.9 mph 32.2 mph 0.00 in Snow Light Snow
10:53 PM 28.0 °F 15.3 °F 24.1 °F 85% 29.71 in 0.8 mi NE 18.4 mph 27.6 mph 0.00 in Snow Light Snow
11:18 PM 27.0 °F 15.2 °F 24.1 °F 89% 29.69 in 1.0 mi NNE 15.0 mph 23.0 mph 0.01 in Snow Light Snow
11:39 PM 27.0 °F 18.0 °F 24.1 °F 89% 29.69 in 0.5 mi NNE 9.2 mph 25.3 mph 0.01 in Fog , Snow Snow
11:51 PM 26.6 °F 16.2 °F 24.8 °F 93% 29.69 in 0.2 mi North 11.5 mph 24.2 mph 0.02 in Fog , Snow Snow
11:53 PM 26.1 °F 15.0 °F 24.1 °F 92% 29.69 in 0.2 mi North 12.7 mph 24.2 mph 0.03 in Fog , Snow Snow